Regional Weather Roundup
Issued by NWS Goodland, KS

Home | Current Version | Previous Version | Graphics & Text | Print | Product List | Glossary On
Versions: 1 2 3 4 5 6 7 8 9 10 11 12 13 14 15 16 17 18 19 20 21 22 23 24 25 26 27 28 29 30 31 32 33 34 35 36 37 38 39 40 41 42 43 44 45 46 47 48 49 50
000
ASUS43 KGLD 221259
RWRGLD

GOODLAND FORECAST AREA HOURLY WEATHER ROUNDUP
NATIONAL WEATHER SERVICE GOODLAND KS
600 AM MST WED NOV 22 2017

...OFFICIAL OBSERVATIONS...

CITY           SKY/WX    TMP DP  RH WIND       PRES   REMARKS
GOODLAND KS    CLOUDY    36  27  69 W13       30.20F
HILL CITY KS   CLOUDY    28  16  60 S5        30.31F
IMPERIAL NEB   CLOUDY    30  26  85 SW6       30.18F
MCCOOK NEB     CLOUDY    30  21  69 S6        30.23F
AKRON CO       CLOUDY    36  28  73 W17       30.21R
BURLINGTON CO  CLOUDY    41  29  62 W14       30.22F
LIMON CO       CLOUDY    26  25  96 N3        30.26S
$$

...UNOFFICIAL OBSERVATIONS...

CITY           SKY/WX    TMP DP  RH WIND       PRES   REMARKS
LENORA KS        N/A     28  32 100 S10         N/A  WCI  19
NORTON KS      CLEAR     28  12  50 S9        30.27
SHARON SPRINGS   N/A     30  25  80 SW12        N/A
KIT CARSON CO    N/A     24  19  82 CALM        N/A
YUMA CO        FAIR      36  30  80 W8        30.19S
$$




USA.gov is the U.S. government's official web portal to all federal, state and local government web resources and services.